Wind_Speed
26 27 28 29 30 31 32 33 34 34 35 35 36 37 38 40 42 44 46 47 48 49 47 47 44 42 44 43 43 43 42 40 39 38 36 36 35 34 33 33 32 33 33 34 34 34 34 34 34 35 36 37 39 41 42 43 45 46 48 50 51 53 54 55 56 58 60 61 62 63 64 64 65 65 66 67 68 68 67 65 63 61 61 61 60 58
27 28 29 30 32 33 34 35 35 35 36 37 37 39 40 42 44 45 47 47 49 49 47 47 43 41 44 44 42 42 40 38 37 36 35 34 34 33 31 31 31 32 32 33 34 34 35 35 35 36 37 38 40 42 43 44 46 48 49 51 53 54 56 57 58 59 61 62 63 64 64 65 66 66 67 68 68 68 68 66 63 61 60 61 60 58
28 29 30 32 33 34 35 35 36 36 37 38 39 40 42 44 46 47 47 47 48 48 47 46 42 41 44 44 41 41 39 37 36 35 34 33 32 32 31 31 31 31 32 33 35 36 36 37 38 39 40 41 42 44 45 47 48 50 51 53 54 56 57 59 60 61 62 62 63 64 64 65 66 67 68 69 69 69 67 65 62 60 60 61 60 58
29 30 31 33 34 35 36 36 37 37 39 40 41 43 45 47 48 49 48 47 46 47 47 46 44 42 44 44 40 40 38 36 35 34 33 32 31 31 32 32 32 32 33 35 37 38 39 39 40 41 42 43 45 46 48 49 50 52 53 54 56 58 59 61 61 61 62 63 63 64 65 66 67 68 69 70 70 69 67 65 62 60 60 60 60 58
31 32 32 34 35 36 36 37 38 39 40 42 43 45 47 48 50 50 50 47 45 46 46 46 45 42 43 43 40 38 37 35 34 33 32 32 31 31 32 33 34 34 35 36 38 39 40 41 42 43 44 45 47 48 50 51 52 53 54 56 58 59 61 61 61 62 62 63 64 64 65 66 68 69 71 71 71 70 68 64 60 59 60 60 60 58
32 33 33 35 36 36 37 38 39 40 41 43 45 47 48 49 50 49 49 47 45 45 44 46 47 44 43 43 39 37 36 35 34 33 33 32 31 32 33 34 36 37 37 38 39 41 42 43 44 44 46 47 49 50 51 52 54 55 56 58 59 60 61 61 61 62 62 64 65 65 66 67 69 70 72 72 71 70 68 63 59 58 59 60 60 59
33 34 34 35 36 37 38 39 40 42 43 44 46 48 49 50 50 49 47 47 46 45 44 45 48 45 42 41 38 36 35 34 33 33 33 33 33 35 36 37 38 39 40 40 41 42 44 45 46 47 48 49 51 52 53 54 55 57 59 60 60 60 60 61 61 62 63 65 66 66 67 68 70 71 72 73 72 70 67 62 58 57 58 59 60 58
34 35 35 36 37 38 39 40 41 43 45 46 48 49 50 50 49 48 47 47 46 45 44 44 46 45 42 41 39 35 34 33 32 33 34 34 35 38 39 41 42 42 43 43 44 45 46 47 48 49 50 51 52 53 55 56 58 59 60 60 59 59 60 61 62 63 64 65 66 67 68 69 71 72 73 74 72 69 66 61 58 57 57 58 60 58
34 35 36 37 38 38 40 41 43 45 47 48 49 50 50 50 49 48 47 46 45 44 44 44 45 44 42 42 40 36 34 33 32 33 34 35 37 40 42 44 45 46 47 47 48 48 49 50 51 52 53 54 55 56 57 59 61 61 61 60 59 59 60 61 63 64 65 65 66 67 69 70 72 73 74 73 71 69 65 61 58 57 57 58 60 59
35 36 37 38 39 39 41 43 44 46 48 49 50 50 50 50 49 48 47 46 45 44 43 44 44 44 42 41 39 37 35 34 33 33 34 36 39 42 44 46 48 49 50 51 51 52 52 53 54 55 56 57 58 58 59 61 62 61 60 60 60 60 61 62 63 64 65 66 66 68 69 70 72 73 73 72 70 68 65 61 58 57 57 58 60 59
36 37 38 38 40 41 43 44 46 48 49 50 50 50 50 49 49 48 47 47 46 44 43 43 44 44 42 40 39 38 37 36 35 35 36 38 41 44 46 49 51 52 52 53 53 54 55 56 57 59 59 60 60 61 61 61 61 60 59 60 60 61 62 63 64 65 65 66 67 68 69 70 72 73 73 71 68 65 64 61 58 56 56 58 60 59
37 37 38 39 41 42 44 46 47 49 50 50 50 50 50 49 49 49 48 47 47 45 44 44 43 42 40 40 41 39 38 38 37 37 38 41 44 46 49 51 53 54 54 54 55 56 58 59 60 61 62 62 63 63 63 62 61 60 59 60 60 61 63 63 65 66 66 66 67 68 69 70 72 73 74 72 67 63 62 61 59 57 56 57 59 59
37 38 39 40 42 44 45 47 48 49 49 49 49 50 50 50 50 50 49 49 49 46 44 43 43 40 38 40 41 39 38 38 38 38 41 45 47 49 51 53 54 55 55 56 57 58 60 60 61 62 63 64 64 65 64 63 62 61 61 61 61 62 63 64 65 65 66 66 67 68 69 70 72 73 74 73 68 62 60 60 60 56 56 58 58 58
38 38 39 41 43 45 47 48 49 49 49 49 48 48 49 50 51 51 51 51 50 48 44 41 40 39 37 40 42 40 39 38 37 40 45 48 50 51 52 53 54 55 56 57 58 59 60 61 63 64 64 65 65 65 64 64 63 63 62 62 62 62 63 64 65 65 66 66 67 68 69 70 72 72 73 73 69 64 60 59 59 55 57 59 57 56
39 40 41 43 44 46 48 49 49 49 49 48 47 48 48 49 50 51 51 52 52 49 44 39 37 37 38 38 40 41 40 39 40 44 48 50 52 53 53 54 55 56 56 57 58 59 60 62 64 65 65 65 65 65 64 64 64 63 63 63 63 63 64 65 65 65 66 66 67 68 69 70 71 72 73 72 69 66 61 58 57 56 56 57 54 54
41 42 43 44 46 47 48 48 48 48 48 48 47 47 48 48 49 50 51 51 52 51 45 38 33 34 36 35 37 42 43 43 45 48 50 52 54 55 55 55 56 57 57 57 58 60 61 63 64 65 66 65 65 65 64 64 64 64 64 64 64 65 65 66 65 66 66 66 67 67 69 70 71 71 72 71 70 68 62 59 58 56 55 53 52 52
43 44 45 45 46 46 47 47 47 46 47 47 47 47 48 49 49 49 51 50 51 51 48 40 32 30 33 34 36 45 49 49 49 51 53 55 57 57 57 57 57 58 58 59 60 62 63 64 64 65 65 65 65 65 65 65 65 65 65 66 66 66 67 67 66 66 66 67 67 67 68 69 70 71 71 70 70 68 64 61 58 54 52 50 50 51
45 47 46 45 45 45 46 46 45 45 45 46 46 47 48 50 49 49 51 50 51 52 50 44 34 30 32 34 36 46 53 54 54 54 56 57 58 59 58 58 59 60 60 61 63 64 65 65 65 65 65 65 65 65 65 65 66 66 67 68 68 68 68 68 67 67 67 67 67 67 67 69 70 70 71 70 69 67 65 61 56 51 49 48 48 51
47 48 47 45 44 44 44 44 44 44 45 45 45 46 48 49 49 50 50 50 51 52 51 48 40 31 31 35 40 49 55 56 57 58 58 59 59 60 59 60 61 62 62 64 66 66 66 66 66 66 65 64 65 65 66 66 67 67 69 69 70 69 68 68 67 67 66 67 67 67 68 69 69 70 70 70 68 66 64 61 55 49 46 46 48 50
47 48 48 45 43 43 43 43 44 44 44 45 45 46 47 48 48 49 49 48 50 52 52 52 46 34 31 38 46 53 56 57 59 60 59 60 61 61 61 62 64 64 66 67 68 68 68 67 67 66 65 64 65 66 67 67 68 69 70 70 70 70 69 68 68 67 67 67 67 68 68 69 69 69 70 70 68 66 63 60 54 47 46 47 47 48
47 48 47 44 42 43 42 43 44 44 45 45 45 46 46 47 48 48 49 47 48 51 51 54 51 36 33 41 50 55 57 58 61 61 60 61 61 61 63 64 66 67 69 70 70 70 69 68 67 66 65 65 66 67 68 68 69 70 71 71 71 71 70 69 69 68 67 67 67 67 68 68 69 69 69 69 68 66 63 59 54 48 47 46 45 46
46 47 46 44 42 42 41 42 44 44 44 45 45 45 45 46 46 48 50 48 49 50 49 55 55 41 37 46 53 56 59 60 61 62 61 61 61 62 64 66 68 70 71 72 71 70 69 68 67 67 66 67 68 69 69 70 71 71 72 73 73 73 72 71 70 69 69 68 67 67 68 69 68 68 69 69 68 66 63 59 55 50 46 45 44 45
46 46 45 44 42 42 41 42 44 44 44 45 44 44 44 45 45 47 49 49 51 52 49 54 58 49 45 52 56 58 61 61 62 63 62 61 62 63 65 67 70 71 72 72 71 70 70 69 68 68 68 69 70 71 71 71 72 73 73 74 75 74 73 73 72 71 70 69 68 68 68 69 69 68 68 68 67 66 62 59 56 50 46 45 45 43
45 45 45 44 43 42 41 41 43 44 44 44 43 43 44 44 45 46 48 49 52 52 50 55 60 56 53 56 58 59 62 62 63 64 63 62 63 65 67 69 72 72 72 72 72 71 71 70 71 71 71 72 72 72 73 73 74 75 75 76 76 76 75 74 73 72 71 70 69 69 69 69 69 68 68 67 66 65 62 59 55 50 47 46 44 41
45 44 45 46 46 45 44 42 42 42 42 42 41 42 43 44 45 46 48 50 53 54 53 57 61 60 57 58 59 60 62 63 63 64 64 64 66 68 70 72 73 74 73 74 73 73 73 73 73 73 73 74 74 75 76 76 77 77 77 78 78 78 76 75 75 73 72 71 69 69 69 69 69 68 68 67 65 63 61 58 54 49 45 44 42 41
44 43 43 45 47 48 48 46 45 43 41 40 40 41 43 44 45 47 49 51 54 57 58 59 61 62 58 58 60 62 63 64 65 66 66 66 68 70 72 74 75 75 76 76 75 75 75 75 75 75 76 76 77 78 79 79 79 79 80 80 80 80 79 77 76 75 74 72 70 70 70 70 69 68 67 66 64 62 59 56 53 48 44 44 42 40
44 42 42 43 44 45 46 45 46 45 43 41 41 43 44 46 47 48 50 52 54 58 60 59 62 64 60 60 63 64 65 68 69 69 69 68 70 72 74 76 77 78 78 78 78 78 78 77 78 78 79 80 80 81 81 82 82 82 82 82 82 82 81 79 78 76 75 73 71 70 70 70 70 68 67 65 63 61 59 55 52 47 43 43 41 40
44 42 41 41 40 41 42 42 43 44 43 43 44 45 46 48 49 50 51 52 55 59 61 59 62 65 63 62 65 67 69 71 71 71 71 70 72 74 76 77 78 78 78 78 79 80 81 82 82 82 83 83 84 85 85 85 85 85 85 84 84 83 82 81 80 78 76 74 72 71 71 70 70 68 67 65 63 62 58 55 51 46 42 41 40 39
44 42 41 40 38 37 39 40 41 42 43 44 45 47 48 49 51 52 52 54 56 60 61 60 62 63 63 64 67 69 71 72 72 72 71 71 73 76 77 78 78 78 79 80 82 83 85 86 87 88 88 89 89 90 89 89 89 89 88 87 87 85 84 82 80 79 77 74 72 71 71 71 69 67 66 64 63 62 58 54 50 45 41 40 39 38
43 41 40 40 36 33 36 39 40 42 43 44 46 47 49 51 53 54 55 55 57 58 60 61 62 61 63 66 69 70 71 72 71 72 72 72 75 77 79 79 80 81 83 84 86 87 89 90 92 93 94 94 95 95 95 95 94 93 92 91 89 87 85 83 81 79 77 74 72 71 70 70 69 66 65 64 63 62 57 52 48 43 41 41 41 39
41 40 39 40 36 33 35 38 40 42 44 45 48 49 51 52 54 55 56 55 56 57 59 61 63 63 64 68 70 70 70 71 72 73 74 74 76 78 80 82 83 85 87 89 90 92 93 95 96 98 100 101 101 102 102 101 100 98 96 94 91 88 85 83 81 79 76 74 72 70 70 69 67 65 63 62 62 61 56 51 46 42 41 43 42 39
39 39 39 41 39 36 37 40 41 43 45 47 49 51 51 53 54 55 56 55 56 58 60 62 64 66 67 68 69 69 70 72 74 76 76 77 79 81 84 86 88 90 92 93 95 97 99 100 102 104 105 105 105 104 103 103 101 100 98 95 93 90 86 83 80 77 75 73 71 70 69 68 65 63 62 61 60 59 55 49 44 41 41 41 39 37
38 39 40 42 42 40 40 42 43 44 46 49 50 51 52 53 54 55 56 55 56 59 62 64 65 66 67 68 69 70 71 73 75 77 79 81 83 85 87 89 92 94 96 99 101 104 105 106 105 104 104 103 103 102 102 102 101 100 98 96 94 90 87 83 79 76 74 72 70 69 67 65 63 61 60 59 59 57 53 47 42 40 39 37 35 34
39 41 42 44 46 44 44 45 46 46 48 50 52 52 52 54 55 56 57 56 57 60 62 63 64 65 66 68 70 72 73 74 76 79 81 84 87 89 91 93 96 99 102 104 106 106 106 105 103 102 102 102 103 104 103 103 102 101 99 96 93 90 86 81 77 74 72 70 68 67 65 63 61 59 58 57 57 55 51 45 40 38 35 34 35 35
40 42 44 46 48 48 48 48 48 48 50 52 53 53 53 55 56 58 58 57 57 60 62 63 64 66 67 69 72 74 76 77 78 81 84 86 90 93 96 99 102 105 105 105 104 103 103 103 103 104 105 106 106 106 106 105 103 101 99 95 92 87 82 78 74 71 69 67 65 63 62 60 58 56 55 55 55 53 49 43 40 38 34 33 35 36
43 44 46 48 50 51 51 51 50 50 51 53 53 53 54 56 57 59 60 58 59 62 64 65 66 68 70 72 74 76 79 79 80 83 87 91 94 98 101 104 104 103 102 101 100 101 103 104 106 108 109 109 108 108 107 106 104 102 99 95 90 85 78 74 70 67 65 63 61 60 59 57 55 53 53 53 53 51 47 42 40 39 37 35 35 35
45 46 48 50 51 52 52 51 50 50 51 53 53 54 57 58 60 63 64 63 62 64 66 67 69 70 72 75 77 79 81 82 82 85 89 94 97 100 101 100 98 97 97 98 99 101 104 106 108 109 110 110 108 106 105 104 103 100 97 93 88 82 75 69 65 63 61 59 57 56 55 53 52 50 51 51 50 49 45 41 39 40 40 39 38 37
47 48 49 50 51 51 51 51 51 52 53 55 55 57 59 60 61 64 66 65 64 65 67 69 71 73 75 78 80 82 85 86 86 87 91 95 97 97 96 94 93 93 95 98 100 102 104 106 106 106 105 105 103 101 99 98 96 94 91 86 82 76 69 63 59 58 56 55 53 51 50 49 48 48 49 49 48 46 42 39 39 38 37 38 39 37
48 49 49 49 49 49 49 50 52 53 55 56 56 57 59 61 62 64 65 64 64 65 68 71 74 77 79 81 83 85 88 91 91 92 93 95 94 92 91 91 93 94 97 99 101 102 102 101 100 99 98 97 96 94 92 90 87 85 82 78 74 68 62 57 55 53 51 50 48 47 45 45 44 45 46 46 45 44 40 37 37 35 33 34 36 35
49 49 48 48 48 48 49 51 52 54 55 56 57 58 60 61 63 65 66 65 65 66 70 73 77 79 81 83 85 87 90 94 96 95 93 91 90 89 91 93 95 97 99 100 99 97 95 94 94 93 93 92 91 89 87 84 81 77 73 70 66 60 54 52 50 48 46 45 44 42 41 41 42 43 44 43 43 40 37 35 35 34 33 33 33 34
49 48 48 48 49 50 52 53 55 56 56 56 58 59 60 62 63 64 66 67 69 70 72 75 77 79 82 84 86 89 91 93 93 91 89 88 89 90 91 93 95 96 97 96 93 90 90 89 90 90 90 90 89 87 84 81 77 72 67 62 57 52 48 46 45 44 42 41 40 39 38 39 40 41 41 41 40 37 34 34 34 34 34 33 33 33
49 49 50 51 52 53 54 56 57 57 56 57 59 60 61 62 63 64 66 69 71 73 74 74 77 80 83 85 87 89 90 89 88 87 87 88 89 89 90 92 93 93 92 89 87 86 86 87 86 86 86 85 85 84 81 77 71 66 61 56 52 49 45 42 41 40 38 37 37 36 37 38 39 39 39 39 36 33 32 33 33 33 34 33 33 33
50 51 52 54 55 55 56 57 58 58 58 59 60 61 61 62 64 66 68 69 70 73 74 75 77 81 85 87 87 88 89 88 87 87 87 87 87 88 89 90 90 89 87 85 84 83 84 83 83 82 82 81 80 79 77 72 65 59 55 54 52 49 45 41 39 38 36 35 35 35 36 37 37 37 37 36 33 31 31 33 33 33 34 33 33 31
52 53 54 56 56 56 56 58 58 58 58 59 61 61 61 63 64 67 69 69 70 72 74 76 78 81 85 87 88 88 88 88 87 86 86 85 85 86 87 87 86 85 83 82 82 81 81 81 79 78 77 75 74 74 72 69 63 56 53 53 52 49 45 42 39 37 35 35 35 35 35 36 36 36 35 33 31 30 31 33 33 33 32 31 30 28
53 54 55 56 56 56 57 57 58 58 57 57 58 59 59 61 63 66 69 71 72 74 77 79 81 83 86 88 89 88 87 86 85 84 84 84 84 85 85 84 84 83 81 80 80 80 79 77 76 74 73 71 70 69 67 65 62 58 54 52 51 49 47 43 40 37 35 35 35 35 35 35 35 34 33 30 29 29 31 33 32 29 28 27 26 24
53 54 55 55 55 56 56 56 55 54 53 54 55 58 60 62 64 66 68 70 72 75 79 82 84 86 87 88 87 86 84 84 83 82 83 83 83 83 83 83 82 81 80 79 78 78 77 75 74 72 71 69 68 67 65 63 61 59 55 52 51 50 47 43 40 37 35 34 34 34 34 34 33 31 29 28 27 29 31 31 29 25 24 23 22 22
54 54 54 55 55 54 54 54 54 52 52 54 57 60 62 64 66 68 69 72 74 77 81 83 85 86 86 86 85 83 82 81 81 81 81 82 82 82 82 82 81 79 78 78 77 77 76 75 73 72 70 69 67 66 65 63 61 59 56 53 51 48 46 43 40 37 35 34 33 33 33 32 29 27 26 26 26 28 29 29 25 22 21 20 20 21
53 54 54 54 54 54 54 54 54 53 53 56 59 62 63 65 68 70 73 75 77 79 80 82 83 84 84 83 82 81 80 79 79 80 80 80 80 81 81 80 78 77 77 76 76 76 75 74 73 71 70 69 67 66 64 63 61 59 56 53 50 47 44 42 40 37 36 34 33 32 32 29 25 23 23 23 24 26 27 25 21 19 20 20 20 20
53 54 54 54 53 53 53 55 56 57 58 60 63 65 67 68 70 71 73 75 76 78 79 79 80 81 81 81 80 79 79 78 77 78 78 78 78 78 78 77 76 76 76 76 75 74 74 73 72 71 69 68 66 65 63 62 60 59 57 55 51 48 45 42 39 37 36 33 32 31 29 25 22 21 21 21 22 24 25 23 20 19 20 21 21 21
53 53 53 54 54 55 56 59 62 64 64 65 67 68 69 70 70 71 72 74 75 77 78 78 78 78 79 79 78 78 77 76 75 76 76 76 76 76 76 75 75 75 74 74 73 72 71 71 71 69 68 67 65 64 63 62 60 59 58 57 53 50 46 43 40 37 35 33 32 29 25 21 19 19 20 20 21 21 22 20 18 18 19 20 21 21
53 54 55 56 58 59 60 62 64 66 67 67 67 68 69 69 70 71 72 74 75 76 78 79 80 79 78 76 75 75 74 74 74 74 74 74 74 73 73 74 74 74 73 72 72 70 70 69 68 68 67 66 65 64 63 62 60 59 58 57 55 51 47 44 41 38 36 34 32 27 22 19 18 18 19 20 21 20 19 17 17 17 18 19 20 20
Wind_Direction
325 325 326 326 326 326 326 326 326 326 326 326 328 328 327 326 326 326 325 325 324 325 326 326 326 326 325 326 326 325 324 323 320 318 318 318 318 318 319 320 321 321 322 321 321 322 322 321 320 319 318 318 317 315 315 315 314 314 314 314 314 314 314 314 315 316 316 317 317 317 317 317 316 316 317 316 316 316 316 316 317 315 314 312 311 310
321 322 323 324 325 326 325 326 326 325 325 326 327 327 326 325 325 325 325 325 325 325 326 326 327 327 326 327 327 326 325 323 320 319 320 320 320 320 321 322 323 323 323 323 323 323 323 323 322 322 320 319 318 317 316 316 315 315 315 314 314 314 315 315 316 317 317 317 317 317 317 316 316 316 317 316 316 316 316 316 317 316 314 312 310 309
318 319 321 322 323 324 324 324 325 325 324 325 325 325 325 324 325 325 326 325 325 326 326 326 327 328 327 327 327 327 326 323 321 322 322 323 323 322 322 323 323 324 325 325 324 324 325 325 324 323 322 321 319 318 317 316 316 315 315 315 315 315 316 317 317 317 317 317 317 317 317 316 317 317 317 317 317 317 316 316 317 316 313 311 310 308
316 317 319 320 321 322 322 323 323 324 324 324 324 324 324 324 324 324 325 326 326 325 326 327 328 329 327 327 328 328 326 324 323 324 325 325 325 323 323 323 324 326 327 327 325 325 325 325 324 323 322 320 319 318 317 317 316 316 316 316 316 317 317 317 317 317 317 317 317 317 317 317 317 318 318 318 317 317 317 317 317 316 313 311 309 308
314 315 317 318 319 320 321 322 322 324 324 324 323 324 324 324 324 324 324 325 325 325 326 327 328 329 326 326 329 328 326 325 325 326 326 326 324 323 323 325 326 327 327 327 325 324 324 323 323 322 321 320 319 318 318 317 317 317 317 317 317 318 317 317 317 317 317 317 317 317 317 318 319 319 319 318 318 317 317 317 317 316 313 311 309 307
313 314 315 317 318 319 320 321 321 322 323 323 323 323 324 323 323 323 323 324 325 326 327 328 328 329 327 326 329 328 326 326 326 326 326 324 323 324 325 326 327 327 327 326 325 323 323 322 322 322 321 321 320 319 319 319 319 319 318 318 318 318 317 318 318 318 318 317 317 318 319 320 320 320 319 319 319 318 317 317 316 315 313 311 309 307
312 313 315 316 317 318 319 320 321 321 322 323 323 323 323 322 322 323 323 324 325 326 328 329 328 328 327 325 327 329 327 327 327 326 325 323 324 325 326 327 327 327 326 325 324 323 322 322 322 322 322 321 320 320 319 319 320 319 319 318 318 318 318 318 318 318 318 318 318 319 320 321 321 320 320 319 319 318 317 317 315 314 314 311 309 307
311 313 314 316 316 317 318 319 320 320 321 322 322 322 321 321 321 322 323 324 326 326 329 330 326 327 328 325 327 329 327 327 328 326 323 323 325 326 326 327 327 327 326 324 323 323 322 322 321 322 322 321 320 320 320 320 320 319 319 318 319 319 318 318 318 318 318 318 319 320 321 321 321 321 321 320 319 318 317 316 314 314 314 312 310 307
311 312 314 315 316 317 318 318 319 320 320 321 321 320 320 320 321 322 323 324 325 327 329 329 325 326 328 325 326 329 327 327 327 324 322 323 325 325 326 327 327 327 326 324 324 323 322 322 321 322 322 322 321 321 321 320 320 319 319 319 319 319 318 318 318 318 318 319 320 321 322 322 322 322 321 320 319 318 317 316 313 313 314 312 311 309
310 312 313 314 315 316 317 318 318 319 319 319 319 319 319 320 321 322 323 324 324 326 328 329 326 326 328 326 326 328 328 328 326 323 323 324 325 326 327 327 327 327 326 325 324 323 323 322 322 322 322 322 322 321 321 320 320 319 319 319 319 319 318 318 318 318 319 320 321 321 322 322 322 322 321 320 319 318 317 315 312 311 312 312 310 309
310 312 313 314 314 315 316 317 318 318 318 318 318 318 319 320 320 321 323 323 324 325 328 329 327 326 329 327 327 329 328 328 327 325 326 326 326 326 327 327 326 326 325 324 323 323 323 323 323 323 322 322 322 321 321 320 319 319 319 318 318 318 318 317 318 319 319 320 321 322 323 323 323 322 321 320 318 317 315 315 312 310 311 312 310 309
310 312 313 313 314 315 316 316 317 317 317 317 318 318 319 320 320 321 322 323 323 325 328 330 328 328 330 328 327 329 328 327 326 327 328 327 327 327 326 326 326 325 324 324 323 323 323 323 323 322 322 322 321 321 320 319 319 318 318 317 317 318 317 318 318 319 320 320 321 322 323 323 323 322 321 320 318 316 314 313 311 308 309 311 310 309
310 312 312 313 314 314 315 315 316 316 316 317 318 318 319 319 319 320 322 322 322 324 329 331 329 330 331 328 327 327 324 324 325 327 327 327 326 327 326 326 325 324 324 324 324 323 323 322 322 322 322 321 320 320 319 319 318 317 317 316 317 317 317 318 318 319 320 321 322 323 324 324 323 322 321 320 318 315 313 312 310 307 308 311 309 307
309 311 312 312 313 313 314 315 315 316 316 317 318 318 319 319 319 320 321 322 322 323 328 332 331 331 332 330 326 323 321 323 326 326 326 325 326 326 326 326 325 324 324 324 323 322 321 321 321 321 321 320 320 319 318 318 316 316 316 316 317 317 317 318 319 319 320 321 322 323 324 324 323 322 321 320 319 316 314 311 308 305 307 309 307 306
309 310 311 312 313 313 314 314 314 315 315 316 317 317 318 319 319 320 321 321 321 322 326 332 333 332 334 332 324 317 318 323 327 326 324 324 325 326 327 326 324 323 323 322 321 321 320 320 321 320 320 319 318 318 317 316 315 315 316 316 316 317 317 318 319 320 321 322 323 324 324 323 323 322 321 320 319 317 315 311 307 304 306 308 306 305
309 310 311 312 313 313 313 313 314 314 314 315 316 317 318 318 319 319 319 320 319 320 324 330 335 335 335 332 321 314 317 324 327 326 324 324 326 326 327 325 323 322 321 321 320 320 320 320 320 320 319 318 318 317 316 315 315 315 316 316 316 317 317 317 319 320 321 322 323 323 323 323 322 322 321 321 319 317 315 310 306 304 305 305 305 305
309 310 311 312 312 313 312 313 314 314 314 315 316 317 317 317 318 318 318 318 318 319 322 327 337 341 336 331 321 315 318 323 326 325 324 325 326 326 325 323 321 320 320 321 320 320 320 319 319 319 318 317 317 316 315 315 315 316 316 316 317 317 317 318 319 320 321 321 322 322 322 322 322 322 322 321 319 317 315 311 307 305 304 303 303 305
309 309 311 311 312 312 311 312 313 313 313 314 315 317 317 317 318 317 317 318 318 319 320 324 334 345 339 329 321 315 317 322 324 324 324 325 324 324 323 321 320 320 321 321 320 320 319 319 319 318 318 317 316 315 315 315 316 316 317 317 317 317 317 318 319 319 320 320 321 321 321 321 322 322 322 320 318 317 316 312 309 306 302 300 302 304
308 309 310 311 311 311 311 312 312 311 312 313 315 317 316 316 317 317 317 318 319 318 320 322 330 345 341 326 318 314 316 321 323 323 323 323 322 322 322 321 320 321 321 320 319 319 319 319 319 318 317 316 315 315 315 316 317 317 317 316 316 316 317 317 318 319 319 320 320 320 320 320 321 321 321 320 318 317 316 312 310 304 298 299 302 302
308 309 310 311 311 310 311 312 311 311 311 314 316 316 316 316 316 316 316 318 318 317 319 320 324 343 345 324 316 315 317 321 321 321 322 322 322 321 321 321 320 320 319 318 318 318 318 318 318 317 316 315 315 315 316 316 316 316 315 315 315 315 316 317 318 318 319 319 319 319 319 319 320 321 321 320 318 317 316 312 308 301 296 298 299 299
308 308 309 311 311 311 312 312 310 310 312 315 317 316 316 316 315 316 315 317 317 315 319 318 319 339 346 323 316 316 318 320 319 320 321 321 321 321 320 320 319 319 318 318 317 317 317 317 317 316 315 314 315 315 315 315 315 314 314 314 314 315 315 316 317 318 318 318 318 317 317 317 319 320 320 319 317 316 315 313 306 299 296 297 297 297
308 308 309 311 311 310 311 311 309 311 313 315 317 316 316 315 316 316 315 317 315 314 320 316 315 335 344 322 316 318 317 318 318 319 320 320 321 321 320 319 318 318 317 317 317 316 317 317 316 316 315 314 314 314 314 314 313 313 313 313 314 315 315 316 317 317 317 317 317 316 315 316 317 318 319 318 317 315 315 313 307 300 296 296 296 297
307 307 309 310 310 310 311 310 310 312 314 316 317 317 315 315 316 315 314 316 314 315 320 314 313 331 336 321 318 318 316 318 318 318 319 321 321 320 318 318 317 316 316 316 316 317 317 317 316 315 315 314 314 314 313 313 312 313 313 314 314 314 315 315 315 316 316 316 315 314 314 314 315 317 318 317 316 314 314 313 309 302 295 294 295 296
306 307 308 309 309 310 310 310 311 313 315 316 317 316 315 315 315 314 314 315 313 315 317 312 314 325 327 320 319 317 316 318 317 317 319 320 320 318 317 317 316 315 316 316 317 317 317 317 316 315 314 314 313 313 312 312 312 313 313 313 313 313 314 314 314 314 314 314 313 312 312 312 313 315 317 317 315 313 313 312 309 302 294 291 293 294
306 307 309 309 311 311 311 311 312 313 314 316 316 314 314 314 313 314 314 314 313 315 314 313 316 321 322 321 319 316 316 317 316 317 320 320 319 318 317 316 315 315 316 317 318 318 317 317 316 315 314 313 313 312 312 312 312 312 312 312 312 312 312 312 312 312 312 312 311 311 310 310 311 313 315 316 314 312 311 310 307 301 292 290 292 292
306 308 309 310 312 314 314 315 315 315 316 317 316 315 314 314 314 315 315 314 315 314 314 316 317 318 321 322 318 316 317 317 317 319 320 320 319 318 317 316 316 317 318 318 318 318 317 316 315 314 313 313 312 312 311 312 311 311 311 311 311 311 311 311 311 311 310 310 309 309 308 309 309 311 313 315 314 311 309 307 305 300 292 288 290 291
306 308 309 310 313 314 315 316 316 316 318 319 317 316 315 315 315 315 314 315 315 314 315 318 316 317 323 322 318 317 318 318 319 319 319 319 319 317 317 317 318 319 319 318 318 317 316 315 315 314 313 312 312 311 311 311 311 311 310 310 310 309 309 309 309 309 308 308 308 307 307 307 307 309 311 314 313 310 307 305 302 298 292 288 288 290
307 309 310 310 313 315 314 314 315 316 318 319 317 316 315 315 315 314 314 315 314 314 316 318 317 318 322 320 317 317 318 318 319 318 318 319 318 317 317 317 318 319 318 317 316 316 316 315 315 315 314 313 312 311 311 310 310 310 309 309 309 308 308 308 307 307 307 306 306 305 305 305 306 307 309 312 312 309 306 304 300 295 290 288 288 288
308 310 311 311 314 316 314 314 315 316 318 318 317 315 315 315 314 314 314 315 315 316 317 318 317 319 320 317 317 318 319 318 318 317 318 319 318 317 317 317 318 317 317 317 317 317 316 316 315 315 314 313 312 311 310 310 309 309 308 308 307 307 306 306 306 305 305 305 304 304 303 304 304 306 308 310 311 309 306 303 299 293 288 287 287 286
309 312 312 312 316 319 315 314 316 317 317 317 315 314 314 315 315 315 316 316 317 317 316 316 317 318 318 317 318 319 318 317 317 317 319 319 319 318 317 318 318 318 319 319 318 317 317 316 315 314 314 313 312 311 310 310 309 308 307 306 306 305 305 304 304 304 303 303 303 302 302 302 303 305 306 308 310 310 306 302 298 291 285 285 285 284
311 313 314 314 318 322 318 316 317 317 317 316 314 314 315 316 316 316 317 318 318 316 315 315 317 318 318 317 318 318 318 317 318 318 319 320 319 318 318 319 320 320 320 319 318 317 316 315 315 314 313 313 312 311 310 309 308 307 306 305 304 304 303 303 303 302 302 302 301 301 301 301 302 304 305 306 309 309 306 301 296 289 284 285 285 283
314 316 317 316 319 323 320 317 318 318 317 315 314 314 316 316 317 317 318 319 318 316 316 317 318 318 318 317 317 317 317 317 318 319 320 321 321 320 321 321 321 320 319 318 318 317 316 316 315 314 314 313 312 311 310 309 308 307 305 304 303 303 302 302 301 301 300 300 300 300 300 301 301 303 304 305 307 308 306 299 292 286 284 285 285 283
317 318 319 318 319 322 321 319 320 320 317 314 314 315 317 318 319 319 319 320 319 318 318 318 318 318 317 316 316 316 317 318 320 321 322 323 322 322 322 321 320 319 319 319 318 318 317 317 316 315 315 314 313 312 311 309 308 307 306 304 303 301 300 300 300 299 299 298 298 298 299 299 300 302 303 304 306 307 305 297 289 284 282 282 284 285
319 319 319 318 319 322 321 320 321 320 317 315 316 319 321 320 319 318 319 320 319 318 318 318 317 316 316 317 317 319 320 321 323 324 324 323 322 322 321 321 320 320 320 320 319 319 318 318 317 316 315 314 313 311 310 309 308 306 305 304 302 300 299 298 298 297 297 296 296 297 297 298 299 300 302 303 304 306 304 295 285 280 278 279 282 285
320 319 319 319 319 321 321 321 321 321 318 318 320 322 321 319 317 317 318 319 318 317 317 317 317 317 318 319 320 322 323 324 325 325 324 323 322 322 322 322 322 321 321 320 320 320 319 318 317 316 315 314 313 312 310 309 307 305 304 302 301 299 298 297 296 295 295 295 295 296 296 297 298 299 301 302 303 304 302 293 282 276 275 279 281 283
319 319 319 319 319 320 321 321 322 322 320 319 320 320 318 316 316 316 317 318 318 318 318 317 318 319 321 322 323 324 324 325 327 326 324 324 324 323 323 323 322 322 321 321 321 320 319 318 317 316 315 314 313 312 310 308 307 305 304 302 301 299 298 296 295 294 293 293 294 294 295 296 297 299 300 301 302 302 299 291 282 274 272 277 283 285
319 319 319 319 319 320 320 321 322 321 319 318 318 319 317 317 318 317 317 319 319 319 319 319 320 322 323 323 324 325 325 326 327 327 326 325 324 323 322 322 322 322 322 321 321 320 319 319 318 317 316 315 315 313 311 309 308 306 305 304 302 301 299 296 294 293 293 293 293 293 294 295 296 298 299 299 300 301 296 288 282 276 271 273 279 285
319 319 319 319 319 320 321 321 321 319 317 317 319 319 318 318 318 317 317 318 319 320 321 322 323 324 324 325 326 326 326 326 327 327 326 324 323 322 321 321 322 322 322 322 322 321 320 319 319 319 318 317 316 315 313 312 310 309 308 307 305 303 301 297 294 293 292 292 292 292 292 294 295 297 298 298 299 298 293 284 280 279 274 271 274 280
319 319 319 319 320 320 320 320 319 317 317 318 319 318 317 317 316 316 317 319 321 322 323 324 325 326 327 327 328 328 327 326 326 326 325 323 323 322 322 323 324 324 324 323 323 322 322 322 321 321 321 321 320 319 317 316 314 313 312 310 308 306 303 299 296 293 292 291 291 290 291 292 294 296 297 297 297 295 289 281 278 278 275 272 272 277
320 320 320 320 320 319 318 318 317 317 317 318 318 317 316 316 317 317 319 321 322 324 326 327 328 328 328 328 328 327 327 325 324 325 324 324 324 325 326 326 326 326 325 325 324 325 325 325 326 327 328 328 327 326 324 321 318 317 316 314 312 310 306 301 298 295 293 291 290 289 290 291 293 295 295 296 295 292 285 278 275 274 273 273 273 275
321 321 320 320 319 318 318 318 318 318 318 318 317 317 317 318 319 320 322 324 326 327 328 329 328 327 327 327 326 326 325 324 323 324 325 325 326 327 328 327 326 325 325 326 327 328 329 330 332 333 334 334 333 331 329 325 323 321 320 319 319 316 310 304 300 297 294 292 289 289 289 291 293 294 294 293 292 287 280 274 272 272 272 273 272 274
321 321 320 319 319 319 319 318 317 317 318 318 318 319 319 321 322 323 325 327 328 328 328 328 327 326 326 326 325 324 324 324 324 325 326 327 328 328 327 326 325 326 327 329 331 332 333 334 335 336 337 337 337 335 333 330 327 326 325 325 324 321 315 309 304 300 296 292 290 289 289 290 291 292 292 291 288 282 274 271 272 273 272 271 271 272
321 320 319 318 318 319 318 318 317 318 319 319 320 321 323 324 326 326 326 327 327 326 326 327 327 326 325 325 325 325 325 326 327 327 328 328 328 327 326 326 328 330 332 333 334 335 335 336 337 338 338 339 338 338 337 335 332 331 331 329 327 323 319 313 307 302 298 294 291 290 289 289 290 290 290 287 283 276 271 272 276 276 273 270 270 270
319 319 318 318 318 318 318 318 318 319 321 322 322 324 325 326 326 325 325 325 326 326 326 327 327 326 325 325 326 327 328 328 328 328 327 327 327 327 327 330 332 334 335 335 336 337 337 337 338 338 339 340 339 340 340 339 336 334 332 331 328 325 321 316 309 303 299 295 292 291 289 289 289 289 288 285 280 272 269 275 280 279 273 269 267 265
318 318 317 317 318 318 318 318 319 321 322 323 324 324 324 324 323 323 324 325 326 327 327 327 327 327 327 328 328 329 329 328 327 327 327 327 328 329 331 334 335 336 336 337 338 338 338 337 338 339 340 341 341 341 342 342 339 337 334 332 330 328 324 319 313 307 301 297 295 293 290 289 290 289 286 283 277 270 270 277 282 277 269 265 262 260
317 317 317 317 318 318 318 319 320 321 322 322 321 321 321 322 322 323 324 325 326 327 328 328 329 329 330 329 328 328 328 327 327 327 327 328 330 332 334 335 336 337 337 338 338 338 338 338 338 340 342 343 344 344 344 344 342 341 338 335 332 329 326 323 318 312 306 302 299 295 293 292 291 288 285 282 276 270 272 279 280 272 264 262 260 259
317 317 317 317 317 317 317 318 319 320 321 320 319 320 322 323 324 325 326 327 328 329 329 330 330 330 329 328 327 328 328 327 327 328 328 330 332 333 335 337 338 338 338 339 339 339 339 339 340 341 343 344 345 345 345 345 344 343 342 339 335 331 328 324 320 315 311 307 303 300 297 296 293 288 284 282 276 271 274 279 275 267 265 264 262 260
316 316 316 317 317 317 318 318 319 319 320 320 320 321 322 324 326 327 328 329 329 329 329 329 329 329 328 327 327 327 327 327 327 328 330 331 333 335 336 338 339 339 339 340 341 341 340 340 340 342 343 345 345 346 346 345 345 344 343 341 339 335 331 326 321 317 314 310 307 305 302 299 293 287 286 284 278 275 278 277 271 267 270 270 268 265
316 317 317 318 318 317 317 317 318 319 320 322 322 323 325 326 327 327 327 327 327 327 327 328 328 328 328 327 327 327 327 327 327 329 330 332 334 336 337 338 339 340 341 342 342 342 341 340 341 342 343 344 345 345 345 345 345 345 344 343 341 339 335 331 326 321 318 314 312 309 305 299 292 287 287 285 281 280 280 275 267 267 271 273 273 271
317 318 318 318 318 318 319 320 321 322 323 324 324 325 326 326 326 325 325 325 325 326 326 327 328 328 329 328 327 327 327 327 327 329 330 333 335 336 337 338 340 341 342 342 343 343 342 341 341 342 343 344 344 345 345 345 345 345 344 343 342 340 337 334 330 326 322 319 316 312 307 300 294 289 286 284 282 282 280 272 264 266 272 275 277 277
318 318 319 320 321 322 323 323 323 323 324 324 324 325 324 323 323 324 324 325 326 326 327 328 328 329 329 329 327 326 326 326 327 329 331 334 335 336 337 339 340 340 341 342 343 343 343 343 343 343 343 344 344 345 345 346 346 346 345 344 342 340 337 335 332 329 325 322 319 315 309 304 299 292 286 283 280 279 278 273 268 269 274 281 285 286
Height
5825 5823 5821 5819 5817 5814 5812 5809 5807 5804 5802 5799 5797 5794 5792 5789 5786 5783 5780 5776 5773 5770 5765 5761 5757 5754 5752 5749 5745 5742 5738 5734 5731 5727 5725 5722 5719 5717 5715 5712 5710 5707 5704 5701 5698 5695 5693 5690 5687 5684 5680 5677 5674 5670 5667 5664 5660 5656 5653 5649 5645 5641 5638 5634 5630 5625 5620 5615 5610 5605 5601 5595 5590 5586 5581 5576 5571 5565 5560 5555 5550 5546 5541 5536 5531 5526
5822 5820 5818 5816 5814 5812 5809 5807 5804 5802 5799 5797 5794 5792 5789 5786 5783 5779 5776 5772 5769 5766 5762 5758 5753 5750 5747 5744 5741 5738 5734 5730 5727 5724 5722 5719 5716 5714 5712 5710 5707 5704 5701 5698 5694 5691 5688 5685 5682 5679 5676 5672 5669 5665 5662 5659 5655 5651 5647 5643 5639 5635 5631 5627 5623 5619 5614 5609 5604 5599 5594 5589 5583 5578 5574 5568 5563 5558 5552 5547 5543 5538 5533 5529 5524 5519
5820 5818 5816 5814 5811 5809 5807 5804 5802 5799 5796 5794 5791 5789 5785 5782 5779 5775 5772 5768 5764 5762 5759 5755 5750 5746 5743 5739 5736 5734 5730 5727 5723 5721 5718 5716 5713 5710 5708 5706 5704 5701 5698 5694 5690 5687 5685 5682 5678 5675 5672 5668 5665 5661 5657 5654 5650 5645 5641 5637 5633 5629 5625 5621 5616 5612 5607 5602 5598 5592 5587 5582 5576 5571 5566 5561 5555 5550 5545 5539 5535 5531 5526 5522 5517 5512
5818 5816 5814 5811 5809 5807 5804 5802 5799 5796 5793 5790 5788 5785 5782 5778 5775 5771 5768 5764 5760 5757 5755 5752 5747 5742 5738 5736 5733 5730 5727 5723 5720 5717 5715 5713 5710 5707 5704 5702 5700 5697 5694 5691 5687 5684 5681 5678 5674 5671 5667 5664 5660 5656 5652 5648 5644 5640 5636 5632 5628 5623 5619 5614 5610 5605 5601 5596 5591 5586 5580 5575 5569 5563 5558 5553 5548 5543 5537 5532 5527 5523 5519 5514 5510 5506
5816 5813 5811 5809 5806 5804 5801 5799 5796 5793 5790 5787 5784 5781 5778 5774 5770 5767 5764 5760 5757 5753 5750 5748 5745 5740 5735 5732 5730 5726 5723 5720 5717 5714 5712 5709 5706 5704 5701 5698 5695 5693 5690 5687 5684 5680 5677 5674 5670 5667 5663 5659 5655 5651 5646 5642 5638 5634 5630 5626 5622 5617 5612 5607 5603 5598 5594 5589 5584 5579 5573 5567 5562 5556 5550 5545 5540 5535 5530 5525 5521 5516 5512 5507 5502 5498
5813 5811 5808 5806 5803 5801 5798 5795 5793 5790 5787 5784 5781 5778 5774 5770 5766 5763 5759 5756 5753 5749 5746 5743 5740 5737 5732 5728 5726 5723 5720 5717 5714 5711 5708 5705 5702 5700 5697 5695 5692 5689 5686 5683 5680 5676 5672 5669 5666 5662 5658 5654 5650 5645 5641 5637 5633 5629 5624 5620 5615 5610 5605 5600 5596 5591 5587 5582 5577 5572 5566 5560 5555 5549 5542 5537 5533 5527 5522 5518 5514 5510 5505 5501 5496 5491
5810 5808 5805 5803 5800 5798 5795 5792 5789 5787 5784 5781 5777 5774 5770 5766 5763 5759 5755 5752 5749 5746 5743 5739 5735 5733 5729 5724 5723 5721 5717 5714 5711 5707 5704 5701 5698 5696 5693 5690 5688 5685 5682 5679 5675 5672 5668 5664 5660 5657 5653 5649 5644 5640 5636 5632 5627 5623 5618 5613 5608 5603 5598 5593 5589 5584 5580 5575 5570 5564 5559 5553 5547 5542 5535 5529 5524 5519 5514 5510 5507 5503 5499 5494 5490 5485
5807 5805 5802 5800 5797 5795 5792 5789 5786 5783 5780 5777 5774 5770 5766 5762 5759 5755 5752 5748 5745 5742 5739 5736 5731 5728 5726 5721 5719 5717 5714 5711 5708 5704 5700 5697 5695 5692 5689 5686 5683 5680 5677 5674 5671 5667 5663 5659 5655 5651 5647 5643 5639 5634 5630 5625 5621 5616 5611 5607 5602 5597 5591 5586 5582 5577 5572 5568 5562 5557 5551 5546 5540 5534 5528 5522 5516 5511 5507 5503 5499 5495 5491 5487 5483 5479
5804 5802 5799 5797 5794 5791 5789 5786 5783 5779 5776 5773 5770 5766 5762 5759 5755 5751 5748 5744 5741 5738 5736 5733 5728 5724 5722 5717 5714 5713 5711 5708 5706 5701 5698 5695 5692 5688 5685 5682 5678 5675 5672 5668 5665 5661 5657 5653 5649 5645 5642 5637 5633 5628 5623 5619 5614 5609 5605 5600 5595 5590 5585 5579 5575 5570 5566 5560 5555 5549 5543 5538 5532 5526 5521 5514 5508 5503 5499 5495 5492 5488 5484 5480 5476 5471
5801 5799 5796 5794 5791 5788 5785 5782 5779 5776 5772 5769 5765 5762 5758 5755 5751 5747 5744 5740 5737 5735 5733 5730 5724 5720 5718 5714 5711 5709 5707 5704 5702 5698 5695 5692 5688 5684 5680 5677 5674 5670 5666 5662 5659 5655 5651 5647 5643 5639 5635 5631 5626 5622 5617 5612 5608 5603 5598 5593 5588 5583 5578 5573 5568 5564 5558 5553 5547 5541 5536 5530 5524 5518 5512 5507 5501 5496 5491 5488 5484 5481 5477 5473 5468 5465
5798 5796 5793 5790 5788 5785 5782 5779 5776 5772 5769 5765 5761 5758 5754 5751 5747 5744 5741 5737 5734 5732 5730 5727 5722 5717 5713 5710 5706 5704 5702 5699 5697 5694 5691 5688 5684 5681 5677 5673 5669 5665 5662 5657 5653 5649 5645 5641 5636 5632 5628 5624 5620 5615 5611 5606 5602 5597 5592 5587 5582 5576 5571 5566 5561 5557 5551 5546 5540 5534 5529 5523 5516 5510 5504 5499 5494 5488 5484 5480 5477 5473 5470 5466 5461 5457
5795 5793 5790 5787 5784 5782 5779 5775 5772 5769 5765 5761 5757 5753 5749 5746 5743 5739 5736 5733 5730 5728 5726 5723 5718 5714 5710 5705 5702 5700 5697 5694 5691 5688 5686 5683 5680 5677 5673 5669 5665 5660 5656 5652 5648 5644 5639 5635 5631 5626 5622 5617 5613 5608 5604 5600 5595 5591 5586 5581 5576 5570 5565 5560 5555 5549 5544 5538 5532 5527 5521 5515 5509 5503 5497 5492 5486 5481 5476 5473 5469 5466 5462 5458 5454 5450
5792 5789 5787 5784 5781 5778 5775 5771 5768 5764 5761 5757 5753 5749 5745 5741 5738 5735 5732 5729 5725 5724 5723 5719 5714 5711 5708 5703 5699 5696 5694 5691 5688 5685 5682 5678 5675 5672 5669 5664 5660 5655 5651 5646 5642 5638 5634 5629 5625 5621 5616 5611 5607 5602 5597 5593 5588 5584 5579 5574 5570 5564 5558 5553 5548 5542 5537 5531 5525 5519 5513 5507 5502 5496 5490 5484 5479 5474 5470 5465 5462 5458 5454 5451 5447 5443
5789 5787 5784 5781 5778 5775 5771 5767 5764 5760 5756 5753 5749 5745 5741 5737 5733 5730 5727 5723 5720 5719 5719 5716 5712 5708 5706 5701 5695 5692 5690 5688 5685 5682 5679 5675 5671 5668 5665 5660 5655 5650 5646 5642 5637 5633 5629 5624 5619 5615 5610 5605 5600 5595 5590 5586 5581 5577 5572 5567 5563 5557 5551 5546 5541 5535 5529 5523 5517 5511 5506 5500 5495 5489 5483 5477 5471 5467 5462 5458 5454 5451 5447 5444 5440 5436
5785 5783 5780 5777 5774 5771 5767 5763 5760 5756 5752 5749 5746 5742 5738 5734 5729 5725 5722 5718 5715 5714 5715 5714 5710 5706 5703 5699 5692 5688 5686 5685 5683 5679 5676 5672 5668 5664 5660 5655 5651 5646 5642 5638 5634 5629 5624 5619 5614 5608 5604 5599 5594 5589 5584 5579 5574 5570 5565 5560 5556 5550 5544 5539 5534 5528 5522 5516 5510 5504 5498 5493 5487 5482 5476 5470 5464 5459 5455 5451 5447 5443 5440 5437 5433 5429
5781 5779 5777 5773 5770 5767 5763 5759 5756 5752 5748 5745 5742 5738 5734 5730 5726 5722 5718 5715 5710 5707 5709 5711 5709 5705 5702 5697 5690 5684 5682 5681 5679 5676 5672 5667 5663 5659 5655 5650 5646 5642 5638 5634 5629 5624 5619 5613 5608 5602 5597 5592 5587 5582 5577 5572 5567 5563 5558 5553 5548 5543 5537 5532 5526 5520 5514 5508 5503 5497 5491 5486 5480 5475 5469 5463 5456 5451 5447 5443 5439 5435 5432 5429 5426 5422
5777 5775 5773 5770 5766 5763 5759 5755 5752 5748 5744 5741 5738 5734 5730 5726 5723 5719 5714 5711 5707 5702 5702 5706 5706 5703 5699 5693 5686 5680 5676 5676 5675 5671 5666 5662 5657 5653 5650 5646 5641 5637 5633 5628 5623 5618 5613 5608 5602 5597 5591 5585 5580 5575 5570 5565 5560 5555 5550 5545 5540 5535 5530 5524 5518 5512 5506 5501 5495 5490 5484 5478 5473 5467 5461 5455 5449 5444 5439 5435 5431 5428 5425 5422 5419 5415
5773 5771 5769 5766 5762 5759 5755 5752 5749 5745 5741 5737 5734 5731 5726 5722 5719 5715 5710 5706 5702 5697 5695 5698 5702 5701 5695 5690 5684 5677 5672 5670 5669 5665 5661 5657 5653 5649 5645 5640 5635 5631 5626 5621 5616 5611 5606 5601 5595 5590 5584 5579 5573 5568 5563 5558 5552 5547 5542 5536 5532 5527 5521 5515 5510 5504 5499 5493 5488 5483 5477 5471 5465 5460 5454 5448 5442 5437 5432 5427 5423 5420 5417 5414 5411 5408
5769 5767 5765 5762 5759 5755 5751 5748 5745 5741 5738 5734 5731 5727 5723 5718 5714 5710 5706 5702 5698 5693 5689 5689 5694 5697 5693 5686 5680 5674 5669 5666 5662 5659 5656 5652 5648 5643 5639 5634 5628 5624 5619 5614 5609 5604 5599 5593 5588 5583 5578 5573 5567 5561 5555 5550 5544 5539 5534 5528 5523 5519 5513 5507 5501 5496 5491 5485 5480 5474 5469 5463 5457 5452 5446 5440 5435 5430 5424 5419 5415 5412 5410 5407 5404 5401
5765 5762 5760 5758 5755 5751 5748 5744 5740 5737 5734 5731 5728 5723 5719 5715 5711 5706 5703 5700 5695 5690 5686 5681 5685 5692 5690 5682 5676 5669 5664 5661 5657 5654 5651 5646 5642 5636 5631 5626 5621 5616 5612 5606 5601 5596 5591 5586 5581 5575 5570 5565 5560 5554 5548 5542 5537 5531 5526 5521 5515 5510 5505 5499 5493 5488 5483 5477 5472 5466 5461 5455 5450 5444 5439 5433 5427 5422 5416 5411 5407 5404 5402 5399 5396 5394
5760 5757 5755 5754 5751 5747 5744 5740 5736 5732 5730 5727 5724 5720 5715 5711 5707 5702 5699 5698 5693 5689 5685 5678 5676 5686 5688 5678 5670 5664 5660 5656 5652 5648 5646 5641 5636 5631 5624 5618 5613 5608 5604 5598 5593 5588 5583 5579 5574 5569 5563 5558 5553 5547 5541 5535 5530 5525 5519 5513 5507 5502 5496 5490 5485 5479 5474 5469 5464 5458 5453 5447 5442 5437 5431 5425 5420 5414 5409 5403 5399 5396 5394 5392 5389 5386
5756 5753 5751 5749 5747 5743 5741 5737 5732 5729 5726 5723 5720 5716 5712 5707 5704 5699 5694 5693 5690 5686 5685 5676 5669 5678 5684 5674 5665 5660 5655 5651 5647 5643 5640 5635 5630 5624 5618 5612 5606 5601 5596 5590 5586 5581 5576 5571 5567 5562 5557 5551 5545 5540 5534 5528 5523 5517 5512 5505 5499 5493 5487 5481 5476 5471 5465 5460 5455 5450 5445 5439 5434 5429 5424 5418 5412 5407 5401 5396 5392 5389 5387 5384 5381 5379
5751 5749 5747 5745 5742 5739 5737 5733 5728 5725 5723 5720 5716 5712 5708 5704 5701 5696 5691 5688 5684 5681 5682 5673 5663 5670 5675 5667 5659 5654 5649 5645 5641 5636 5633 5630 5624 5618 5612 5606 5600 5595 5590 5584 5578 5573 5568 5563 5558 5553 5549 5543 5537 5532 5526 5521 5515 5509 5503 5496 5490 5484 5478 5472 5467 5462 5457 5452 5447 5442 5436 5431 5426 5421 5416 5410 5404 5399 5394 5388 5384 5381 5379 5377 5374 5372
5747 5745 5743 5741 5739 5736 5734 5730 5726 5722 5719 5716 5713 5708 5704 5701 5697 5693 5689 5685 5680 5677 5677 5669 5660 5662 5666 5660 5654 5648 5642 5638 5634 5629 5626 5623 5618 5612 5605 5599 5593 5588 5583 5577 5571 5566 5560 5555 5550 5545 5540 5534 5529 5523 5518 5512 5507 5500 5494 5487 5481 5475 5469 5463 5457 5453 5448 5443 5438 5433 5428 5422 5417 5412 5408 5402 5397 5391 5386 5381 5377 5374 5371 5369 5367 5365
5743 5741 5738 5735 5733 5731 5728 5726 5723 5720 5717 5713 5709 5705 5701 5697 5693 5690 5686 5681 5676 5673 5671 5665 5657 5657 5659 5655 5648 5642 5637 5633 5628 5623 5619 5614 5609 5603 5597 5592 5586 5580 5575 5570 5564 5558 5552 5547 5541 5536 5531 5525 5520 5514 5509 5503 5497 5491 5485 5478 5471 5466 5460 5454 5448 5443 5438 5434 5429 5424 5419 5413 5409 5404 5399 5394 5389 5383 5378 5373 5369 5366 5364 5362 5360 5357
5740 5738 5735 5731 5728 5724 5720 5717 5715 5714 5712 5709 5706 5701 5697 5693 5689 5685 5681 5677 5672 5666 5664 5660 5653 5652 5654 5650 5641 5635 5631 5626 5621 5617 5612 5607 5601 5594 5588 5582 5577 5571 5566 5560 5555 5549 5544 5540 5534 5528 5522 5516 5510 5504 5498 5493 5487 5482 5476 5469 5461 5455 5450 5444 5438 5433 5428 5423 5419 5414 5409 5405 5400 5396 5391 5386 5381 5375 5370 5366 5362 5358 5356 5354 5353 5350
5736 5735 5733 5729 5726 5722 5717 5713 5709 5706 5706 5704 5700 5696 5692 5688 5685 5681 5677 5673 5668 5662 5659 5657 5648 5643 5647 5643 5633 5628 5624 5618 5614 5609 5605 5600 5594 5587 5580 5573 5567 5561 5555 5550 5545 5540 5535 5531 5526 5520 5513 5506 5500 5494 5488 5482 5476 5470 5465 5459 5452 5445 5439 5433 5428 5423 5418 5413 5409 5404 5400 5395 5391 5387 5382 5377 5372 5367 5362 5357 5354 5351 5349 5347 5345 5343
5732 5731 5729 5726 5725 5721 5715 5711 5707 5703 5701 5699 5695 5691 5687 5683 5680 5676 5673 5669 5664 5657 5654 5653 5644 5637 5638 5635 5627 5621 5616 5610 5606 5601 5597 5593 5587 5579 5573 5567 5561 5555 5549 5543 5537 5531 5525 5519 5514 5509 5504 5497 5490 5484 5478 5472 5465 5459 5452 5446 5440 5433 5427 5422 5417 5412 5407 5403 5398 5394 5390 5386 5382 5378 5373 5369 5364 5358 5354 5349 5346 5343 5341 5340 5338 5336
5727 5727 5725 5722 5722 5719 5713 5709 5706 5702 5698 5695 5690 5686 5682 5679 5675 5672 5669 5665 5660 5653 5648 5646 5641 5635 5631 5626 5621 5616 5608 5602 5598 5594 5590 5586 5579 5572 5565 5560 5556 5550 5543 5537 5530 5523 5515 5509 5503 5497 5492 5485 5478 5472 5466 5461 5455 5448 5441 5434 5428 5421 5415 5410 5405 5401 5396 5392 5388 5384 5380 5376 5373 5368 5364 5359 5355 5350 5345 5341 5338 5336 5334 5332 5330 5328
5723 5722 5720 5718 5719 5717 5711 5706 5703 5699 5696 5692 5687 5682 5679 5675 5671 5667 5664 5660 5655 5649 5643 5639 5636 5633 5626 5617 5613 5609 5602 5595 5590 5586 5584 5579 5571 5564 5557 5552 5547 5541 5534 5526 5519 5513 5506 5498 5491 5484 5478 5471 5464 5457 5451 5446 5440 5434 5428 5422 5416 5410 5404 5398 5393 5389 5385 5381 5378 5374 5370 5366 5363 5359 5354 5350 5346 5342 5337 5333 5330 5328 5326 5324 5323 5321
5719 5718 5715 5712 5713 5714 5709 5704 5701 5697 5692 5688 5683 5678 5675 5671 5666 5662 5658 5655 5650 5645 5639 5633 5629 5627 5621 5612 5607 5602 5595 5588 5582 5578 5576 5573 5565 5557 5550 5544 5537 5530 5523 5516 5509 5502 5495 5488 5479 5471 5463 5455 5448 5441 5434 5427 5423 5418 5413 5407 5401 5396 5391 5386 5381 5377 5373 5369 5366 5363 5360 5356 5353 5349 5345 5341 5337 5333 5329 5325 5322 5320 5319 5317 5315 5313
5716 5714 5711 5708 5708 5709 5705 5700 5698 5693 5688 5683 5678 5674 5671 5667 5662 5657 5653 5649 5644 5638 5633 5628 5622 5617 5612 5607 5602 5598 5592 5584 5577 5570 5566 5562 5556 5548 5539 5532 5525 5518 5511 5504 5497 5489 5481 5474 5466 5456 5448 5439 5431 5424 5417 5410 5404 5400 5396 5391 5386 5381 5377 5373 5369 5364 5361 5357 5354 5352 5349 5345 5342 5339 5335 5331 5328 5324 5320 5317 5314 5313 5311 5310 5308 5306
5713 5710 5708 5704 5702 5703 5700 5696 5693 5689 5683 5678 5673 5670 5667 5662 5657 5652 5648 5644 5638 5630 5625 5621 5615 5610 5605 5600 5595 5592 5589 5582 5573 5565 5558 5550 5543 5538 5531 5523 5515 5508 5499 5490 5481 5473 5464 5456 5449 5441 5433 5425 5416 5409 5402 5394 5387 5382 5378 5373 5369 5365 5361 5358 5355 5351 5348 5345 5342 5340 5337 5334 5331 5328 5324 5321 5318 5315 5312 5309 5307 5305 5304 5303 5301 5299
5711 5707 5704 5700 5697 5696 5695 5691 5688 5684 5678 5672 5668 5665 5661 5656 5650 5646 5642 5637 5632 5625 5619 5614 5609 5604 5599 5593 5587 5583 5579 5575 5568 5559 5551 5542 5533 5526 5521 5514 5504 5495 5486 5477 5467 5458 5450 5441 5434 5428 5420 5412 5403 5395 5387 5380 5372 5365 5361 5356 5351 5348 5345 5343 5341 5338 5334 5332 5330 5327 5325 5323 5320 5317 5314 5311 5308 5305 5303 5300 5299 5298 5297 5296 5294 5293
5707 5704 5700 5697 5692 5690 5688 5685 5681 5677 5671 5665 5662 5659 5655 5649 5644 5640 5637 5633 5627 5621 5615 5609 5603 5597 5592 5587 5581 5575 5570 5566 5560 5552 5543 5535 5526 5515 5506 5499 5489 5480 5472 5464 5456 5447 5439 5430 5422 5414 5406 5397 5389 5380 5370 5363 5356 5350 5345 5340 5334 5331 5329 5327 5325 5323 5321 5319 5317 5315 5313 5311 5309 5307 5304 5302 5299 5296 5294 5292 5291 5290 5289 5288 5287 5286
5704 5701 5697 5693 5689 5685 5682 5679 5675 5671 5665 5660 5657 5654 5649 5644 5638 5634 5632 5628 5620 5613 5608 5602 5597 5591 5586 5580 5574 5567 5561 5557 5553 5545 5533 5523 5515 5505 5494 5485 5477 5469 5461 5454 5446 5437 5428 5418 5408 5398 5389 5380 5372 5362 5352 5343 5336 5330 5327 5323 5317 5314 5312 5311 5310 5309 5307 5306 5305 5303 5301 5300 5298 5296 5294 5292 5289 5287 5285 5283 5282 5282 5281 5281 5280 5279
5701 5698 5694 5689 5685 5681 5677 5674 5671 5666 5660 5656 5653 5648 5642 5637 5631 5625 5623 5621 5614 5606 5600 5595 5590 5585 5579 5573 5566 5559 5551 5546 5544 5538 5527 5515 5506 5497 5488 5480 5471 5463 5456 5448 5439 5430 5419 5408 5397 5387 5376 5366 5357 5346 5334 5324 5316 5310 5307 5304 5300 5297 5296 5295 5295 5295 5294 5294 5293 5291 5290 5289 5287 5286 5284 5282 5280 5277 5276 5275 5274 5273 5273 5273 5273 5272
5698 5694 5690 5685 5681 5677 5673 5669 5665 5660 5655 5650 5646 5641 5635 5630 5625 5619 5615 5613 5608 5601 5595 5589 5582 5577 5570 5564 5556 5549 5540 5534 5531 5528 5520 5510 5502 5493 5484 5477 5469 5459 5450 5440 5429 5420 5410 5399 5388 5377 5366 5355 5345 5333 5320 5309 5300 5293 5289 5285 5282 5281 5280 5280 5281 5281 5281 5281 5281 5280 5279 5278 5277 5276 5274 5272 5271 5268 5267 5266 5265 5265 5265 5265 5265 5265
5694 5690 5686 5682 5678 5673 5669 5664 5659 5654 5649 5645 5641 5637 5630 5625 5620 5614 5610 5608 5603 5596 5589 5581 5574 5566 5559 5552 5545 5538 5529 5521 5518 5517 5511 5502 5494 5485 5474 5466 5458 5449 5439 5429 5418 5407 5397 5388 5378 5368 5357 5344 5333 5321 5308 5298 5289 5281 5275 5271 5267 5266 5266 5266 5267 5268 5268 5269 5269 5269 5268 5267 5267 5266 5265 5263 5261 5260 5259 5258 5258 5258 5258 5258 5258 5258
5690 5686 5682 5678 5674 5669 5665 5660 5655 5649 5644 5640 5636 5631 5626 5620 5614 5608 5603 5600 5598 5592 5583 5573 5565 5556 5549 5543 5537 5531 5524 5513 5505 5502 5498 5489 5481 5473 5463 5452 5443 5434 5426 5417 5408 5397 5387 5377 5367 5356 5345 5333 5320 5308 5297 5287 5278 5272 5266 5260 5257 5255 5255 5255 5256 5257 5257 5257 5258 5258 5258 5257 5257 5257 5255 5254 5253 5251 5251 5250 5251 5251 5251 5251 5251 5251
5685 5681 5677 5673 5668 5664 5659 5654 5649 5644 5639 5634 5628 5624 5620 5615 5610 5603 5596 5589 5585 5581 5575 5567 5559 5552 5545 5539 5533 5527 5521 5512 5501 5493 5487 5479 5470 5463 5455 5446 5438 5429 5420 5410 5400 5389 5378 5368 5357 5346 5335 5323 5311 5299 5287 5277 5269 5262 5257 5252 5249 5247 5246 5246 5247 5247 5247 5248 5248 5248 5248 5248 5248 5248 5247 5246 5244 5243 5243 5243 5243 5244 5244 5244 5244 5244
5679 5675 5671 5666 5662 5658 5653 5648 5642 5638 5634 5629 5623 5617 5611 5607 5602 5597 5591 5584 5575 5570 5567 5563 5556 5548 5541 5535 5529 5521 5514 5508 5498 5487 5479 5470 5462 5455 5448 5441 5433 5424 5414 5404 5393 5381 5370 5359 5350 5339 5329 5318 5305 5293 5281 5271 5262 5256 5251 5247 5244 5241 5239 5238 5239 5239 5239 5239 5239 5239 5239 5239 5239 5239 5239 5238 5237 5236 5236 5236 5236 5237 5237 5238 5238 5238
5674 5670 5665 5660 5656 5652 5647 5641 5636 5631 5626 5621 5617 5612 5605 5599 5593 5588 5583 5580 5574 5567 5562 5558 5552 5542 5533 5527 5522 5515 5505 5497 5488 5479 5470 5464 5457 5450 5442 5434 5424 5414 5404 5394 5384 5374 5363 5353 5343 5334 5324 5313 5301 5290 5279 5268 5260 5254 5248 5244 5240 5237 5234 5233 5232 5231 5231 5231 5231 5231 5231 5231 5231 5231 5231 5230 5230 5230 5230 5230 5230 5230 5231 5231 5231 5231
5669 5665 5660 5655 5650 5646 5641 5636 5630 5625 5620 5614 5609 5605 5600 5594 5588 5583 5578 5575 5571 5565 5558 5552 5547 5538 5528 5518 5511 5504 5494 5485 5478 5471 5464 5458 5452 5444 5435 5426 5415 5404 5395 5385 5376 5366 5356 5346 5338 5329 5321 5310 5299 5288 5278 5267 5258 5253 5248 5242 5237 5234 5231 5228 5227 5226 5225 5224 5224 5224 5224 5224 5224 5224 5223 5223 5223 5224 5224 5224 5224 5224 5224 5224 5225 5225
5664 5659 5655 5650 5645 5640 5635 5631 5626 5621 5616 5610 5605 5601 5598 5593 5588 5581 5574 5567 5562 5557 5550 5543 5537 5529 5519 5508 5500 5493 5486 5478 5471 5465 5457 5450 5443 5434 5425 5416 5406 5396 5388 5379 5370 5361 5352 5343 5334 5326 5318 5308 5297 5287 5277 5267 5258 5252 5247 5241 5236 5231 5228 5225 5222 5221 5220 5219 5218 5218 5218 5218 5218 5217 5217 5217 5217 5218 5218 5218 5218 5218 5218 5219 5219 5220
5659 5654 5650 5645 5640 5635 5630 5626 5623 5619 5615 5609 5604 5599 5595 5590 5585 5579 5573 5565 5558 5550 5541 5532 5523 5515 5507 5498 5491 5486 5479 5471 5464 5458 5450 5441 5433 5425 5416 5409 5401 5392 5383 5375 5366 5358 5349 5340 5331 5322 5314 5306 5296 5286 5276 5267 5258 5250 5245 5240 5234 5230 5225 5222 5219 5217 5216 5214 5213 5213 5212 5212 5212 5211 5211 5212 5212 5212 5213 5213 5213 5213 5213 5214 5214 5215
5653 5649 5645 5640 5636 5632 5627 5622 5619 5617 5613 5608 5602 5596 5590 5584 5578 5571 5564 5557 5550 5541 5532 5524 5515 5508 5501 5493 5485 5479 5473 5465 5456 5450 5443 5433 5425 5417 5409 5401 5393 5385 5377 5369 5360 5351 5342 5334 5326 5318 5309 5301 5293 5283 5274 5266 5257 5250 5243 5238 5233 5229 5224 5221 5217 5215 5213 5211 5209 5209 5208 5207 5207 5207 5207 5207 5207 5207 5208 5208 5208 5208 5208 5209 5210 5210
5649 5644 5641 5637 5632 5627 5623 5619 5615 5613 5610 5604 5597 5591 5585 5578 5571 5563 5554 5546 5539 5533 5527 5520 5512 5504 5497 5489 5481 5474 5468 5459 5450 5442 5435 5426 5418 5410 5402 5394 5386 5378 5371 5363 5354 5345 5337 5328 5320 5312 5304 5296 5289 5281 5273 5265 5257 5250 5243 5237 5232 5227 5223 5219 5216 5212 5210 5208 5206 5205 5204 5203 5203 5203 5203 5203 5203 5203 5204 5204 5204 5204 5204 5205 5206 5206
5644 5640 5635 5632 5628 5623 5618 5615 5611 5608 5604 5597 5589 5582 5576 5570 5564 5558 5551 5544 5537 5530 5525 5519 5512 5503 5493 5483 5474 5467 5461 5453 5445 5437 5429 5420 5412 5404 5396 5389 5381 5373 5365 5357 5350 5341 5332 5323 5315 5308 5300 5292 5285 5278 5271 5264 5257 5249 5242 5236 5230 5225 5221 5217 5214 5210 5207 5205 5203 5201 5200 5199 5199 5199 5199 5199 5200 5200 5200 5200 5200 5200 5201 5201 5202 5202
5638 5634 5630 5627 5623 5619 5612 5606 5600 5595 5592 5587 5581 5574 5568 5563 5558 5553 5547 5541 5534 5527 5520 5514 5508 5501 5491 5479 5467 5459 5453 5446 5438 5432 5425 5415 5406 5399 5390 5382 5375 5367 5360 5353 5346 5339 5330 5321 5313 5306 5298 5291 5283 5276 5269 5262 5255 5248 5241 5235 5229 5224 5219 5215 5212 5208 5205 5202 5200 5198 5197 5196 5196 5196 5196 5196 5196 5197 5197 5197 5197 5197 5198 5198 5198 5198
5633 5629 5625 5620 5615 5611 5605 5599 5592 5587 5583 5580 5575 5570 5565 5559 5554 5548 5542 5535 5528 5520 5512 5504 5496 5491 5486 5477 5464 5453 5446 5440 5432 5426 5419 5410 5401 5394 5386 5377 5368 5362 5355 5348 5341 5335 5328 5321 5313 5305 5298 5290 5282 5275 5267 5260 5253 5247 5241 5234 5228 5222 5217 5213 5209 5206 5203 5200 5197 5195 5194 5194 5193 5193 5193 5193 5193 5194 5194 5194 5194 5194 5194 5194 5194 5194